Meteo Giornale » Osservazioni meteo Grecia » Kalamata
ore: 22:20 - Osservazioni Meteo Kalamata
Lat. 37° 4' N Lon. 22° 1' E Alt. 6 metri s.l.m.
24 °C
Poco Nuvoloso
Temp. 24 Ore
21 °C
32 °C
Nord
3.7 Km/h
Dew point 19 °C
Umidità 73 %
Visibilità 10 Km
Il sole sorge alle ore 07:01
Il sole tramonta alle ore 20:02
| Data e Ora | Cielo e Fenomeni | T °C | DP °C | Um. % | Pres. hPa | Vis. km | Vento km/h | |
|---|---|---|---|---|---|---|---|---|
| Oggi h: 22:20 | Poco Nuvoloso | 24 | 19 | 73 | 1014 | 10 | N 3.7 | |
| Oggi h: 21:50 | Poco Nuvoloso | 25 | 20 | 73 | 1014 | 10 | N 5.5 | |
| Oggi h: 21:20 | Poco Nuvoloso | 26 | 20 | 69 | 1014 | 10 | N 0 | |
| Oggi h: 20:50 | Poco Nuvoloso | 27 | 19 | 61 | 1014 | 10 | N 0 | |
| Oggi h: 20:20 | Poco Nuvoloso | 28 | 19 | 58 | 1014 | 10 | N 3.7 | |
| Oggi h: 19:50 | Poco Nuvoloso | 29 | 19 | 54 | 1014 | 10 | N 5.5 | |
| Oggi h: 19:20 | Poco Nuvoloso | 29 | 19 | 54 | 1014 | 10 | S/SE 9.3 | |
| Oggi h: 18:50 | Poco Nuvoloso | 30 | 20 | 55 | 1013 | 10 | S 13 | |
| Oggi h: 18:20 | Poco Nuvoloso | 30 | 19 | 51 | 1014 | 10 | S/SE 13 | |
| Oggi h: 17:50 | Poco Nuvoloso | 31 | 19 | 48 | 1014 | 10 | S/SE 14.8 | |
| Oggi h: 17:20 | Poco Nuvoloso | 31 | 19 | 48 | 1014 | 10 | S/SE 14.8 | |
| Oggi h: 16:50 | Poco Nuvoloso | 31 | 19 | 48 | 1014 | 10 | S/SE 16.7 | |
| Oggi h: 16:20 | Poco Nuvoloso | 32 | 19 | 46 | 1014 | 10 | S/SE 18.5 | |
| Oggi h: 15:50 | Poco Nuvoloso | 31 | 20 | 52 | 1014 | 10 | S/SE 20.3 | |
| Oggi h: 15:20 | Poco Nuvoloso | 31 | 21 | 55 | 1014 | 10 | S/SE 18.5 | |
| Oggi h: 14:50 | Poco Nuvoloso | 32 | 21 | 52 | 1014 | 10 | S/SE 14.8 | |
| Oggi h: 14:20 | Poco Nuvoloso | 31 | 22 | 58 | 1014 | 10 | S/SE 13 | |
| Oggi h: 13:50 | Poco Nuvoloso | 31 | 21 | 55 | 1014 | 10 | S 13 | |
| Oggi h: 13:20 | Poco Nuvoloso | 31 | 22 | 58 | 1015 | 10 | S 11.1 | |
| Oggi h: 12:50 | Nuvoloso | 30 | 23 | 66 | 1015 | 10 | S 13 | |
| Oggi h: 12:20 | Nuvoloso | 30 | 23 | 66 | 1015 | 10 | S 13 | |
| Oggi h: 11:50 | Poco Nuvoloso | 30 | 24 | 70 | 1015 | 10 | S/SE 14.8 | |
| Oggi h: 11:20 | Poco Nuvoloso | 30 | 24 | 70 | 1015 | 10 | S 13 | |
| Oggi h: 10:50 | Poco Nuvoloso | 29 | 23 | 70 | 1015 | 10 | S 11.1 | |
| Oggi h: 10:20 | Poco Nuvoloso | 29 | 23 | 70 | 1015 | 10 | S/SE 7.4 | |
| Oggi h: 09:50 | Poco Nuvoloso | 28 | 23 | 74 | 1015 | 10 | N 3.7 | |
| Oggi h: 09:20 | Poco Nuvoloso | 27 | 22 | 74 | 1015 | 10 | N 3.7 | |
| Oggi h: 08:50 | Poco Nuvoloso | 24 | 21 | 83 | 1015 | 10 | N 3.7 | |
| Oggi h: 08:20 | Poco Nuvoloso | 23 | 21 | 88 | 1015 | 10 | N 5.5 | |
| Oggi h: 07:50 | Poco Nuvoloso | 22 | 20 | 88 | 1015 | 10 | N 5.5 | |
| Oggi h: 07:20 | Poco Nuvoloso | 21 | 20 | 94 | 1015 | 10 | N 5.5 | |
| Oggi h: 06:50 | Sereno | 21 | 20 | 94 | 1015 | 10 | N 0 | |
| Oggi h: 06:20 | Sereno | 21 | 20 | 94 | 1015 | 10 | N 0 | |
| Oggi h: 05:50 | Sereno | 21 | 20 | 94 | 1015 | 10 | N 0 | |
| Oggi h: 05:20 | Sereno | 21 | 20 | 94 | 1015 | 10 | N 0 | |
| Oggi h: 04:50 | Sereno | 22 | 20 | 88 | 1015 | 10 | N 0 | |
| Oggi h: 04:20 | Sereno | 21 | 20 | 94 | 1015 | 10 | N 0 | |
| Oggi h: 03:50 | Sereno | 22 | 20 | 88 | 1015 | 10 | N 0 | |
| Oggi h: 03:20 | Sereno | 22 | 20 | 88 | 1015 | 10 | N 0 | |
| Oggi h: 02:20 | Sereno | 23 | 20 | 83 | 1015 | 10 | N 0 | |
| Oggi h: 01:20 | Sereno | 23 | 21 | 88 | 1015 | 10 | N 0 | |
| Oggi h: 00:50 | Sereno | 23 | 21 | 88 | 1015 | 10 | N 0 | |
| Oggi h: 00:20 | Sereno | 24 | 21 | 83 | 1015 | 10 | N 0 | |
| Ieri h: 23:50 | Sereno | 24 | 21 | 83 | 1015 | 10 | N 0 | |
| Ieri h: 23:20 | Sereno | 24 | 21 | 83 | 1015 | 10 | N 0 | |
| Ieri h: 22:50 | Sereno | 24 | 21 | 83 | 1015 | 10 | N/NO 7.4 | |



